Year,Month,Day,Hour,Minute,Value (Times are PST for temperature in C)
2011,07,05,00,00,13.10
2011,07,05,00,01,13.10
2011,07,05,00,02,13.10
2011,07,05,00,03,13.00
2011,07,05,00,04,13.00
2011,07,05,00,05,12.90
2011,07,05,00,06,12.90
2011,07,05,00,07,12.90
2011,07,05,00,08,12.90
2011,07,05,00,09,12.80
2011,07,05,00,10,12.80
2011,07,05,00,11,12.80
2011,07,05,00,12,12.80
2011,07,05,00,13,12.70
2011,07,05,00,14,12.70
2011,07,05,00,15,12.70
2011,07,05,00,16,12.70
2011,07,05,00,17,12.70
2011,07,05,00,18,12.70
2011,07,05,00,19,12.70
2011,07,05,00,20,12.70
2011,07,05,00,21,12.70
2011,07,05,00,22,12.70
2011,07,05,00,23,12.70
2011,07,05,00,24,12.70
2011,07,05,00,25,12.70
2011,07,05,00,26,12.70
2011,07,05,00,27,12.70
2011,07,05,00,28,12.60
2011,07,05,00,29,12.60
2011,07,05,00,30,12.60
2011,07,05,00,31,12.60
2011,07,05,00,32,12.50
2011,07,05,00,33,12.50
2011,07,05,00,34,12.50
2011,07,05,00,35,12.50
2011,07,05,00,36,12.40
2011,07,05,00,37,12.40
2011,07,05,00,38,12.40
2011,07,05,00,39,12.40
2011,07,05,00,40,12.50
2011,07,05,00,41,12.50
2011,07,05,00,42,12.50
2011,07,05,00,43,12.60
2011,07,05,00,44,12.70
2011,07,05,00,45,12.80
2011,07,05,00,46,12.80
2011,07,05,00,47,12.90
2011,07,05,00,48,13.00
2011,07,05,00,49,13.00
2011,07,05,00,50,13.10
2011,07,05,00,51,13.10
2011,07,05,00,52,13.10
2011,07,05,00,53,13.00
2011,07,05,00,54,13.00
2011,07,05,00,55,12.90
2011,07,05,00,56,12.90
2011,07,05,00,57,12.80
2011,07,05,00,58,12.80
2011,07,05,00,59,12.80
2011,07,05,01,00,12.80
2011,07,05,01,01,12.80
2011,07,05,01,02,12.80
2011,07,05,01,03,12.70
2011,07,05,01,04,12.70
2011,07,05,01,05,12.70
2011,07,05,01,06,12.70
2011,07,05,01,07,12.70
2011,07,05,01,08,12.70
2011,07,05,01,09,12.70
2011,07,05,01,10,12.70
2011,07,05,01,11,12.80
2011,07,05,01,12,12.80
2011,07,05,01,13,12.80
2011,07,05,01,14,12.90
2011,07,05,01,15,13.00
2011,07,05,01,16,13.10
2011,07,05,01,17,13.10
2011,07,05,01,18,13.20
2011,07,05,01,19,13.20
2011,07,05,01,20,13.20
2011,07,05,01,21,13.20
2011,07,05,01,22,13.20
2011,07,05,01,23,13.20
2011,07,05,01,24,13.20
2011,07,05,01,25,13.10
2011,07,05,01,26,13.00
2011,07,05,01,27,13.00
2011,07,05,01,28,12.90
2011,07,05,01,29,12.80
2011,07,05,01,30,12.80
2011,07,05,01,31,12.80
2011,07,05,01,32,12.70
2011,07,05,01,33,12.60
2011,07,05,01,34,12.60
2011,07,05,01,35,12.50
2011,07,05,01,36,12.50
2011,07,05,01,37,12.40
2011,07,05,01,38,12.30
2011,07,05,01,39,12.30
2011,07,05,01,40,12.30
2011,07,05,01,41,12.20
2011,07,05,01,42,12.20
2011,07,05,01,43,12.20
2011,07,05,01,44,12.20
2011,07,05,01,45,12.10
2011,07,05,01,46,12.10
2011,07,05,01,47,12.10
2011,07,05,01,48,12.10
2011,07,05,01,49,12.00
2011,07,05,01,50,12.00
2011,07,05,01,51,12.00
2011,07,05,01,52,12.00
2011,07,05,01,53,11.90
2011,07,05,01,54,11.90
2011,07,05,01,55,11.90
2011,07,05,01,56,11.90
2011,07,05,01,57,11.90
2011,07,05,01,58,11.90
2011,07,05,01,59,11.90
2011,07,05,02,00,11.90
2011,07,05,02,01,11.90
2011,07,05,02,02,11.90
2011,07,05,02,03,11.90
2011,07,05,02,04,11.90
2011,07,05,02,05,11.80
2011,07,05,02,06,11.80
2011,07,05,02,07,11.80
2011,07,05,02,08,11.80
2011,07,05,02,09,11.80
2011,07,05,02,10,11.80
2011,07,05,02,11,11.80
2011,07,05,02,12,11.80
2011,07,05,02,13,11.80
2011,07,05,02,14,11.80
2011,07,05,02,15,11.80
2011,07,05,02,16,11.80
2011,07,05,02,17,11.80
2011,07,05,02,18,11.80
2011,07,05,02,19,11.80
2011,07,05,02,20,11.80
2011,07,05,02,21,11.70
2011,07,05,02,22,11.70
2011,07,05,02,23,11.70
2011,07,05,02,24,11.70
2011,07,05,02,25,11.70
2011,07,05,02,26,11.70
2011,07,05,02,27,11.70
2011,07,05,02,28,11.70
2011,07,05,02,29,11.70
2011,07,05,02,30,11.70
2011,07,05,02,31,11.70
2011,07,05,02,32,11.70
2011,07,05,02,33,11.60
2011,07,05,02,34,11.60
2011,07,05,02,35,11.70
2011,07,05,02,36,11.70
2011,07,05,02,37,11.70
2011,07,05,02,38,11.60
2011,07,05,02,39,11.60
2011,07,05,02,40,11.60
2011,07,05,02,41,11.60
2011,07,05,02,42,11.60
2011,07,05,02,43,11.60
2011,07,05,02,44,11.60
2011,07,05,02,45,11.60
2011,07,05,02,46,11.60
2011,07,05,02,47,11.60
2011,07,05,02,48,11.60
2011,07,05,02,49,11.60
2011,07,05,02,50,11.60
2011,07,05,02,51,11.70
2011,07,05,02,52,11.70
2011,07,05,02,53,11.70
2011,07,05,02,54,11.70
2011,07,05,02,55,11.80
2011,07,05,02,56,11.90
2011,07,05,02,57,11.90
2011,07,05,02,58,11.90
2011,07,05,02,59,11.90
2011,07,05,03,00,11.90
2011,07,05,03,01,11.90
2011,07,05,03,02,11.90
2011,07,05,03,03,11.80
2011,07,05,03,04,11.80
2011,07,05,03,05,11.80
2011,07,05,03,06,11.80
2011,07,05,03,07,11.80
2011,07,05,03,08,11.80
2011,07,05,03,09,11.80
2011,07,05,03,10,11.70
2011,07,05,03,11,11.70
2011,07,05,03,12,11.70
2011,07,05,03,13,11.70
2011,07,05,03,14,11.70
2011,07,05,03,15,11.70
2011,07,05,03,16,11.70
2011,07,05,03,17,11.70
2011,07,05,03,18,11.70
2011,07,05,03,19,11.70
2011,07,05,03,20,11.70
2011,07,05,03,21,11.70
2011,07,05,03,22,11.70
2011,07,05,03,23,11.60
2011,07,05,03,24,11.60
2011,07,05,03,25,11.60
2011,07,05,03,26,11.60
2011,07,05,03,27,11.60
2011,07,05,03,28,11.60
2011,07,05,03,29,11.70
2011,07,05,03,30,11.80
2011,07,05,03,31,12.00
2011,07,05,03,32,12.10
2011,07,05,03,33,12.30
2011,07,05,03,34,12.40
2011,07,05,03,35,12.60
2011,07,05,03,36,12.70
2011,07,05,03,37,12.90
2011,07,05,03,38,13.00
2011,07,05,03,39,13.20
2011,07,05,03,40,13.30
2011,07,05,03,41,13.40
2011,07,05,03,42,13.50
2011,07,05,03,43,13.70
2011,07,05,03,44,13.70
2011,07,05,03,45,13.80
2011,07,05,03,46,13.90
2011,07,05,03,47,13.90
2011,07,05,03,48,13.90
2011,07,05,03,49,14.00
2011,07,05,03,50,14.00
2011,07,05,03,51,14.10
2011,07,05,03,52,14.10
2011,07,05,03,53,14.10
2011,07,05,03,54,14.10
2011,07,05,03,55,14.10
2011,07,05,03,56,14.10
2011,07,05,03,57,14.10
2011,07,05,03,58,14.10
2011,07,05,03,59,14.10
2011,07,05,04,00,14.00
2011,07,05,04,01,14.00
2011,07,05,04,02,13.90
2011,07,05,04,03,13.90
2011,07,05,04,04,13.90
2011,07,05,04,05,13.90
2011,07,05,04,06,13.80
2011,07,05,04,07,13.80
2011,07,05,04,08,13.80
2011,07,05,04,09,13.80
2011,07,05,04,10,13.80
2011,07,05,04,11,13.80
2011,07,05,04,12,13.80
2011,07,05,04,13,13.70
2011,07,05,04,14,13.70
2011,07,05,04,15,13.70
2011,07,05,04,16,13.70
2011,07,05,04,17,13.70
2011,07,05,04,18,13.70
2011,07,05,04,19,13.70
2011,07,05,04,20,13.70
2011,07,05,04,21,13.70
2011,07,05,04,22,13.70
2011,07,05,04,23,13.60
2011,07,05,04,24,13.60
2011,07,05,04,25,13.60
2011,07,05,04,26,13.60
2011,07,05,04,27,13.60
2011,07,05,04,28,13.50
2011,07,05,04,29,13.50
2011,07,05,04,30,13.40
2011,07,05,04,31,13.40
2011,07,05,04,32,13.40
2011,07,05,04,33,13.40
2011,07,05,04,34,13.40
2011,07,05,04,35,13.30
2011,07,05,04,36,13.30
2011,07,05,04,37,13.30
2011,07,05,04,38,13.30
2011,07,05,04,39,13.20
2011,07,05,04,40,13.20
2011,07,05,04,41,13.20
2011,07,05,04,42,13.10
2011,07,05,04,43,13.10
2011,07,05,04,44,13.00
2011,07,05,04,45,13.00
2011,07,05,04,46,12.90
2011,07,05,04,47,12.80
2011,07,05,04,48,12.80
2011,07,05,04,49,12.70
2011,07,05,04,50,12.60
2011,07,05,04,51,12.50
2011,07,05,04,52,12.50
2011,07,05,04,53,12.40
2011,07,05,04,54,12.40
2011,07,05,04,55,12.30
2011,07,05,04,56,12.30
2011,07,05,04,57,12.20
2011,07,05,04,58,12.20
2011,07,05,04,59,12.10
2011,07,05,05,00,12.10
2011,07,05,05,01,12.00
2011,07,05,05,02,12.00
2011,07,05,05,03,11.90
2011,07,05,05,04,11.90
2011,07,05,05,05,11.90
2011,07,05,05,06,11.80
2011,07,05,05,07,11.80
2011,07,05,05,08,11.70
2011,07,05,05,09,11.70
2011,07,05,05,10,11.70
2011,07,05,05,11,11.70
2011,07,05,05,12,11.60
2011,07,05,05,13,11.60
2011,07,05,05,14,11.60
2011,07,05,05,15,11.60
2011,07,05,05,16,11.60
2011,07,05,05,17,11.50
2011,07,05,05,18,11.50
2011,07,05,05,19,11.50
2011,07,05,05,20,11.40
2011,07,05,05,21,11.40
2011,07,05,05,22,11.40
2011,07,05,05,23,11.40
2011,07,05,05,24,11.40
2011,07,05,05,25,11.40
2011,07,05,05,26,11.30
2011,07,05,05,27,11.30
2011,07,05,05,28,11.30
2011,07,05,05,29,11.30
2011,07,05,05,30,11.30
2011,07,05,05,31,11.30
2011,07,05,05,32,11.30
2011,07,05,05,33,11.30
2011,07,05,05,34,11.30
2011,07,05,05,35,11.20
2011,07,05,05,36,11.20
2011,07,05,05,37,11.20
2011,07,05,05,38,11.20
2011,07,05,05,39,11.20
2011,07,05,05,40,11.20
2011,07,05,05,41,11.20
2011,07,05,05,42,11.20
2011,07,05,05,43,11.20
2011,07,05,05,44,11.20
2011,07,05,05,45,11.20
2011,07,05,05,46,11.20
2011,07,05,05,47,11.20
2011,07,05,05,48,11.20
2011,07,05,05,49,11.30
2011,07,05,05,50,11.30
2011,07,05,05,51,11.30
2011,07,05,05,52,11.30
2011,07,05,05,53,11.30
2011,07,05,05,54,11.30
2011,07,05,05,55,11.30
2011,07,05,05,56,11.30
2011,07,05,05,57,11.30
2011,07,05,05,58,11.20
2011,07,05,05,59,11.20
2011,07,05,06,00,11.20
2011,07,05,06,01,11.20
2011,07,05,06,02,11.20
2011,07,05,06,03,11.20
2011,07,05,06,04,11.20
2011,07,05,06,05,11.20
2011,07,05,06,06,11.30
2011,07,05,06,07,11.30
2011,07,05,06,08,11.40
2011,07,05,06,09,11.40
2011,07,05,06,10,11.50
2011,07,05,06,11,11.50
2011,07,05,06,12,11.60
2011,07,05,06,13,11.60
2011,07,05,06,14,11.60
2011,07,05,06,15,11.60
2011,07,05,06,16,11.60
2011,07,05,06,17,11.60
2011,07,05,06,18,11.60
2011,07,05,06,19,11.60
2011,07,05,06,20,11.60
2011,07,05,06,21,11.70
2011,07,05,06,22,11.70
2011,07,05,06,23,11.70
2011,07,05,06,24,11.70
2011,07,05,06,25,11.70
2011,07,05,06,26,11.80
2011,07,05,06,27,11.80
2011,07,05,06,28,11.90
2011,07,05,06,29,11.90
2011,07,05,06,30,12.00
2011,07,05,06,31,12.10
2011,07,05,06,32,12.20
2011,07,05,06,33,12.30
2011,07,05,06,34,12.30
2011,07,05,06,35,12.40
2011,07,05,06,36,12.50
2011,07,05,06,37,12.60
2011,07,05,06,38,12.60
2011,07,05,06,39,12.70
2011,07,05,06,40,12.80
2011,07,05,06,41,12.80
2011,07,05,06,42,12.80
2011,07,05,06,43,12.90
2011,07,05,06,44,12.90
2011,07,05,06,45,12.90
2011,07,05,06,46,13.00
2011,07,05,06,47,13.10
2011,07,05,06,48,13.10
2011,07,05,06,49,13.10
2011,07,05,06,50,13.20
2011,07,05,06,51,13.30
2011,07,05,06,52,13.40
2011,07,05,06,53,13.40
2011,07,05,06,54,13.40
2011,07,05,06,55,13.40
2011,07,05,06,56,13.40
2011,07,05,06,57,13.40
2011,07,05,06,58,13.40
2011,07,05,06,59,13.50
2011,07,05,07,00,13.50
2011,07,05,07,01,13.50
2011,07,05,07,02,13.60
2011,07,05,07,03,13.60
2011,07,05,07,04,13.60
2011,07,05,07,05,13.60
2011,07,05,07,06,13.60
2011,07,05,07,07,13.60
2011,07,05,07,08,13.60
2011,07,05,07,09,13.60
2011,07,05,07,10,13.60
2011,07,05,07,11,13.60
2011,07,05,07,12,13.60
2011,07,05,07,13,13.60
2011,07,05,07,14,13.60
2011,07,05,07,15,13.70
2011,07,05,07,16,13.70
2011,07,05,07,17,13.70
2011,07,05,07,18,13.70
2011,07,05,07,19,13.70
2011,07,05,07,20,13.70
2011,07,05,07,21,13.70
2011,07,05,07,22,13.80
2011,07,05,07,23,13.80
2011,07,05,07,24,13.80
2011,07,05,07,25,13.80
2011,07,05,07,26,13.80
2011,07,05,07,27,13.90
2011,07,05,07,28,13.90
2011,07,05,07,29,13.90
2011,07,05,07,30,13.90
2011,07,05,07,31,14.00
2011,07,05,07,32,14.10
2011,07,05,07,33,14.20
2011,07,05,07,34,14.20
2011,07,05,07,35,14.20
2011,07,05,07,36,14.20
2011,07,05,07,37,14.10
2011,07,05,07,38,14.00
2011,07,05,07,39,13.90
2011,07,05,07,40,13.80
2011,07,05,07,41,13.70
2011,07,05,07,42,13.60
2011,07,05,07,43,13.60
2011,07,05,07,44,13.50
2011,07,05,07,45,13.40
2011,07,05,07,46,13.30
2011,07,05,07,47,13.20
2011,07,05,07,48,13.20
2011,07,05,07,49,13.10
2011,07,05,07,50,13.10
2011,07,05,07,51,13.10
2011,07,05,07,52,13.10
2011,07,05,07,53,13.00
2011,07,05,07,54,13.00
2011,07,05,07,55,12.90
2011,07,05,07,56,12.90
2011,07,05,07,57,12.90
2011,07,05,07,58,12.90
2011,07,05,07,59,12.90
2011,07,05,08,00,12.90
2011,07,05,08,01,12.90
2011,07,05,08,02,13.00
2011,07,05,08,03,13.00
2011,07,05,08,04,13.00
2011,07,05,08,05,13.00
2011,07,05,08,06,13.00
2011,07,05,08,07,13.00
2011,07,05,08,08,13.10
2011,07,05,08,09,13.10
2011,07,05,08,10,13.20
2011,07,05,08,11,13.20
2011,07,05,08,12,13.20
2011,07,05,08,13,13.20
2011,07,05,08,14,13.20
2011,07,05,08,15,13.30
2011,07,05,08,16,13.30
2011,07,05,08,17,13.30
2011,07,05,08,18,13.40
2011,07,05,08,19,13.40
2011,07,05,08,20,13.50
2011,07,05,08,21,13.60
2011,07,05,08,22,13.70
2011,07,05,08,23,13.80
2011,07,05,08,24,13.90
2011,07,05,08,25,14.00
2011,07,05,08,26,14.10
2011,07,05,08,27,14.20
2011,07,05,08,28,14.30
2011,07,05,08,29,14.50
2011,07,05,08,30,14.60
2011,07,05,08,31,14.70
2011,07,05,08,32,14.70
2011,07,05,08,33,14.70
2011,07,05,08,34,14.70
2011,07,05,08,35,14.70
2011,07,05,08,36,14.70
2011,07,05,08,37,14.70
2011,07,05,08,38,14.60
2011,07,05,08,39,14.60
2011,07,05,08,40,14.50
2011,07,05,08,41,14.40
2011,07,05,08,42,14.30
2011,07,05,08,43,14.30
2011,07,05,08,44,14.30
2011,07,05,08,45,14.30
2011,07,05,08,46,14.30
2011,07,05,08,47,14.30
2011,07,05,08,48,14.30
2011,07,05,08,49,14.30
2011,07,05,08,50,14.30
2011,07,05,08,51,14.40
2011,07,05,08,52,14.50
2011,07,05,08,53,14.50
2011,07,05,08,54,14.60
2011,07,05,08,55,14.60
2011,07,05,08,56,14.60
2011,07,05,08,57,14.60
2011,07,05,08,58,14.60
2011,07,05,08,59,14.70
2011,07,05,09,00,14.70
2011,07,05,09,01,14.70
2011,07,05,09,02,14.70
2011,07,05,09,03,14.70
2011,07,05,09,04,14.80
2011,07,05,09,05,14.80
2011,07,05,09,06,15.00
2011,07,05,09,07,15.00
2011,07,05,09,08,15.00
2011,07,05,09,09,15.10
2011,07,05,09,10,15.20
2011,07,05,09,11,15.20
2011,07,05,09,12,15.30
2011,07,05,09,13,15.30
2011,07,05,09,14,15.30
2011,07,05,09,15,15.30
2011,07,05,09,16,15.30
2011,07,05,09,17,15.30
2011,07,05,09,18,15.30
2011,07,05,09,19,15.30
2011,07,05,09,20,15.20
2011,07,05,09,21,15.20
2011,07,05,09,22,15.20
2011,07,05,09,23,15.20
2011,07,05,09,24,15.30
2011,07,05,09,25,15.30
2011,07,05,09,26,15.30
2011,07,05,09,27,15.30
2011,07,05,09,28,15.20
2011,07,05,09,29,15.10
2011,07,05,09,30,15.00
2011,07,05,09,31,15.00
2011,07,05,09,32,14.90
2011,07,05,09,33,14.80
2011,07,05,09,34,14.70
2011,07,05,09,35,14.60
2011,07,05,09,36,14.50
2011,07,05,09,37,14.40
2011,07,05,09,38,14.40
2011,07,05,09,39,14.40
2011,07,05,09,40,14.40
2011,07,05,09,41,14.30
2011,07,05,09,42,14.30
2011,07,05,09,43,14.30
2011,07,05,09,44,14.30
2011,07,05,09,45,14.30
2011,07,05,09,46,14.30
2011,07,05,09,47,14.30
2011,07,05,09,48,14.40
2011,07,05,09,49,14.50
2011,07,05,09,50,14.60
2011,07,05,09,51,14.70
2011,07,05,09,52,14.70
2011,07,05,09,53,14.70
2011,07,05,09,54,14.80
2011,07,05,09,55,14.80
2011,07,05,09,56,14.90
2011,07,05,09,57,15.00
2011,07,05,09,58,15.00
2011,07,05,09,59,15.00
2011,07,05,10,00,15.00
2011,07,05,10,01,15.00
2011,07,05,10,02,15.00
2011,07,05,10,03,15.00
2011,07,05,10,04,15.00
2011,07,05,10,05,15.00
2011,07,05,10,06,15.00
2011,07,05,10,07,15.00
2011,07,05,10,08,15.00
2011,07,05,10,09,15.00
2011,07,05,10,10,15.00
2011,07,05,10,11,15.00
2011,07,05,10,12,15.10
2011,07,05,10,13,15.20
2011,07,05,10,14,15.30
2011,07,05,10,15,15.30
2011,07,05,10,16,15.30
2011,07,05,10,17,15.30
2011,07,05,10,18,15.20
2011,07,05,10,19,15.20
2011,07,05,10,20,15.20
2011,07,05,10,21,15.20
2011,07,05,10,22,15.20
2011,07,05,10,23,15.20
2011,07,05,10,24,15.30
2011,07,05,10,25,15.40
2011,07,05,10,26,15.40
2011,07,05,10,27,15.50
2011,07,05,10,28,15.60
2011,07,05,10,29,15.60
2011,07,05,10,30,15.70
2011,07,05,10,31,15.80
2011,07,05,10,32,15.80
2011,07,05,10,33,15.80
2011,07,05,10,34,15.80
2011,07,05,10,35,15.90
2011,07,05,10,36,15.90
2011,07,05,10,37,15.90
2011,07,05,10,38,15.90
2011,07,05,10,39,16.10
2011,07,05,10,40,16.10
2011,07,05,10,41,16.10
2011,07,05,10,42,16.10
2011,07,05,10,43,16.10
2011,07,05,10,44,16.10
2011,07,05,10,45,16.10
2011,07,05,10,46,16.10
2011,07,05,10,47,16.10
2011,07,05,10,48,16.10
2011,07,05,10,49,16.00
2011,07,05,10,50,16.00
2011,07,05,10,51,16.00
2011,07,05,10,52,16.00
2011,07,05,10,53,16.20
2011,07,05,10,54,16.30
2011,07,05,10,55,16.40
2011,07,05,10,56,16.40
2011,07,05,10,57,16.50
2011,07,05,10,58,16.70
2011,07,05,10,59,16.80
2011,07,05,11,00,16.90
2011,07,05,11,01,16.90
2011,07,05,11,02,16.80
2011,07,05,11,03,16.60
2011,07,05,11,04,16.60
2011,07,05,11,05,16.50
2011,07,05,11,06,16.60
2011,07,05,11,07,16.70
2011,07,05,11,08,16.80
2011,07,05,11,09,16.90
2011,07,05,11,10,16.90
2011,07,05,11,11,16.90
2011,07,05,11,12,16.90
2011,07,05,11,13,16.90
2011,07,05,11,14,16.80
2011,07,05,11,15,16.90
2011,07,05,11,16,16.90
2011,07,05,11,17,17.00
2011,07,05,11,18,17.10
2011,07,05,11,19,17.00
2011,07,05,11,20,16.90
2011,07,05,11,21,16.80
2011,07,05,11,22,16.80
2011,07,05,11,23,16.80
2011,07,05,11,24,16.80
2011,07,05,11,25,16.80
2011,07,05,11,26,16.80
2011,07,05,11,27,16.80
2011,07,05,11,28,16.80
2011,07,05,11,29,16.70
2011,07,05,11,30,16.70
2011,07,05,11,31,16.80
2011,07,05,11,32,16.90
2011,07,05,11,33,16.90
2011,07,05,11,34,17.00
2011,07,05,11,35,17.10
2011,07,05,11,36,17.30
2011,07,05,11,37,17.40
2011,07,05,11,38,17.40
2011,07,05,11,39,17.40
2011,07,05,11,40,17.30
2011,07,05,11,41,17.30
2011,07,05,11,42,17.30
2011,07,05,11,43,17.20
2011,07,05,11,44,17.10
2011,07,05,11,45,17.00
2011,07,05,11,46,17.00
2011,07,05,11,47,17.00
2011,07,05,11,48,17.00
2011,07,05,11,49,17.00
2011,07,05,11,50,17.00
2011,07,05,11,51,17.00
2011,07,05,11,52,17.10
2011,07,05,11,53,17.20
2011,07,05,11,54,17.10
2011,07,05,11,55,17.00
2011,07,05,11,56,16.90
2011,07,05,11,57,17.00
2011,07,05,11,58,17.00
2011,07,05,11,59,16.90
2011,07,05,12,00,16.90
2011,07,05,12,01,16.80
2011,07,05,12,02,16.70
2011,07,05,12,03,16.60
2011,07,05,12,04,16.50
2011,07,05,12,05,16.40
2011,07,05,12,06,16.40
2011,07,05,12,07,16.40
2011,07,05,12,08,16.50
2011,07,05,12,09,16.60
2011,07,05,12,10,16.70
2011,07,05,12,11,16.80
2011,07,05,12,12,16.80
2011,07,05,12,13,16.90
2011,07,05,12,14,16.90
2011,07,05,12,15,16.90
2011,07,05,12,16,17.00
2011,07,05,12,17,17.10
2011,07,05,12,18,17.20
2011,07,05,12,19,17.20
2011,07,05,12,20,17.20
2011,07,05,12,21,17.20
2011,07,05,12,22,17.30
2011,07,05,12,23,17.40
2011,07,05,12,24,17.60
2011,07,05,12,25,17.80
2011,07,05,12,26,18.00
2011,07,05,12,27,18.20
2011,07,05,12,28,18.30
2011,07,05,12,29,18.20
2011,07,05,12,30,18.20
2011,07,05,12,31,18.30
2011,07,05,12,32,18.30
2011,07,05,12,33,18.40
2011,07,05,12,34,18.40
2011,07,05,12,35,18.50
2011,07,05,12,36,18.70
2011,07,05,12,37,18.80
2011,07,05,12,38,18.90
2011,07,05,12,39,19.10
2011,07,05,12,40,19.20
2011,07,05,12,41,19.10
2011,07,05,12,42,19.10
2011,07,05,12,43,19.10
2011,07,05,12,44,19.00
2011,07,05,12,45,19.00
2011,07,05,12,46,19.00
2011,07,05,12,47,19.10
2011,07,05,12,48,19.00
2011,07,05,12,49,18.90
2011,07,05,12,50,18.70
2011,07,05,12,51,18.50
2011,07,05,12,52,18.40
2011,07,05,12,53,18.30
2011,07,05,12,54,18.20
2011,07,05,12,55,18.20
2011,07,05,12,56,18.30
2011,07,05,12,57,18.20
2011,07,05,12,58,18.10
2011,07,05,12,59,18.00
2011,07,05,13,00,17.90
2011,07,05,13,01,17.90
2011,07,05,13,02,17.90
2011,07,05,13,03,18.00
2011,07,05,13,04,18.10
2011,07,05,13,05,18.30
2011,07,05,13,06,18.40
2011,07,05,13,07,18.60
2011,07,05,13,08,18.70
2011,07,05,13,09,18.70
2011,07,05,13,10,18.70
2011,07,05,13,11,18.80
2011,07,05,13,12,18.80
2011,07,05,13,13,18.90
2011,07,05,13,14,19.10
2011,07,05,13,15,19.30
2011,07,05,13,16,19.30
2011,07,05,13,17,19.30
2011,07,05,13,18,19.30
2011,07,05,13,19,19.20
2011,07,05,13,20,19.20
2011,07,05,13,21,19.00
2011,07,05,13,22,18.90
2011,07,05,13,23,18.70
2011,07,05,13,24,18.50
2011,07,05,13,25,18.30
2011,07,05,13,26,18.10
2011,07,05,13,27,18.10
2011,07,05,13,28,18.20
2011,07,05,13,29,18.20
2011,07,05,13,30,18.30
2011,07,05,13,31,18.50
2011,07,05,13,32,18.60
2011,07,05,13,33,18.80
2011,07,05,13,34,18.90
2011,07,05,13,35,19.00
2011,07,05,13,36,19.10
2011,07,05,13,37,19.10
2011,07,05,13,38,19.10
2011,07,05,13,39,19.10
2011,07,05,13,40,19.20
2011,07,05,13,41,19.30
2011,07,05,13,42,19.40
2011,07,05,13,43,19.50
2011,07,05,13,44,19.60
2011,07,05,13,45,19.60
2011,07,05,13,46,19.60
2011,07,05,13,47,19.60
2011,07,05,13,48,19.60
2011,07,05,13,49,19.70
2011,07,05,13,50,19.80
2011,07,05,13,51,19.90
2011,07,05,13,52,19.90
2011,07,05,13,53,19.90
2011,07,05,13,54,19.80
2011,07,05,13,55,19.80
2011,07,05,13,56,19.80
2011,07,05,13,57,19.70
2011,07,05,13,58,19.70
2011,07,05,13,59,19.70
2011,07,05,14,00,19.70
2011,07,05,14,01,19.60
2011,07,05,14,02,19.50
2011,07,05,14,03,19.40
2011,07,05,14,04,19.30
2011,07,05,14,05,19.30
2011,07,05,14,06,19.30
2011,07,05,14,07,19.30
2011,07,05,14,08,19.30
2011,07,05,14,09,19.40
2011,07,05,14,10,19.40
2011,07,05,14,11,19.50
2011,07,05,14,12,19.60
2011,07,05,14,13,19.50
2011,07,05,14,14,19.50
2011,07,05,14,15,19.60
2011,07,05,14,16,19.70
2011,07,05,14,17,19.80
2011,07,05,14,18,19.90
2011,07,05,14,19,20.00
2011,07,05,14,20,20.00
2011,07,05,14,21,20.10
2011,07,05,14,22,20.20
2011,07,05,14,23,20.20
2011,07,05,14,24,20.30
2011,07,05,14,25,20.30
2011,07,05,14,26,20.30
2011,07,05,14,27,20.30
2011,07,05,14,28,20.40
2011,07,05,14,29,20.50
2011,07,05,14,30,20.60
2011,07,05,14,31,20.50
2011,07,05,14,32,20.40
2011,07,05,14,33,20.20
2011,07,05,14,34,20.10
2011,07,05,14,35,20.00
2011,07,05,14,36,19.80
2011,07,05,14,37,19.70
2011,07,05,14,38,19.70
2011,07,05,14,39,19.70
2011,07,05,14,40,19.70
2011,07,05,14,41,19.80
2011,07,05,14,42,19.80
2011,07,05,14,43,19.90
2011,07,05,14,44,20.00
2011,07,05,14,45,20.20
2011,07,05,14,46,20.30
2011,07,05,14,47,20.50
2011,07,05,14,48,20.70
2011,07,05,14,49,20.90
2011,07,05,14,50,21.10
2011,07,05,14,51,21.20
2011,07,05,14,52,21.30
2011,07,05,14,53,21.30
2011,07,05,14,54,21.30
2011,07,05,14,55,21.30
2011,07,05,14,56,21.30
2011,07,05,14,57,21.20
2011,07,05,14,58,21.10
2011,07,05,14,59,21.10
2011,07,05,15,00,21.00
2011,07,05,15,01,20.90
2011,07,05,15,02,20.80
2011,07,05,15,03,20.70
2011,07,05,15,04,20.60
2011,07,05,15,05,20.50
2011,07,05,15,06,20.40
2011,07,05,15,07,20.40
2011,07,05,15,08,20.40
2011,07,05,15,09,20.50
2011,07,05,15,10,20.60
2011,07,05,15,11,20.70
2011,07,05,15,12,20.70
2011,07,05,15,13,20.80
2011,07,05,15,14,20.60
2011,07,05,15,15,20.50
2011,07,05,15,16,20.50
2011,07,05,15,17,20.40
2011,07,05,15,18,20.30
2011,07,05,15,19,20.20
2011,07,05,15,20,20.00
2011,07,05,15,21,19.90
2011,07,05,15,22,19.80
2011,07,05,15,23,19.70
2011,07,05,15,24,19.60
2011,07,05,15,25,19.40
2011,07,05,15,26,19.40
2011,07,05,15,27,19.30
2011,07,05,15,28,19.20
2011,07,05,15,29,19.20
2011,07,05,15,30,19.30
2011,07,05,15,31,19.40
2011,07,05,15,32,19.60
2011,07,05,15,33,19.80
2011,07,05,15,34,20.10
2011,07,05,15,35,20.20
2011,07,05,15,36,20.30
2011,07,05,15,37,20.30
2011,07,05,15,38,20.20
2011,07,05,15,39,20.10
2011,07,05,15,40,20.10
2011,07,05,15,41,20.10
2011,07,05,15,42,20.10
2011,07,05,15,43,20.10
2011,07,05,15,44,20.10
2011,07,05,15,45,20.10
2011,07,05,15,46,20.10
2011,07,05,15,47,20.10
2011,07,05,15,48,20.30
2011,07,05,15,49,20.40
2011,07,05,15,50,20.40
2011,07,05,15,51,20.50
2011,07,05,15,52,20.50
2011,07,05,15,53,20.50
2011,07,05,15,54,20.50
2011,07,05,15,55,20.50
2011,07,05,15,56,20.50
2011,07,05,15,57,20.60
2011,07,05,15,58,20.70
2011,07,05,15,59,20.70
2011,07,05,16,00,20.60
2011,07,05,16,01,20.60
2011,07,05,16,02,20.50
2011,07,05,16,03,20.40
2011,07,05,16,04,20.30
2011,07,05,16,05,20.30
2011,07,05,16,06,20.30
2011,07,05,16,07,20.30
2011,07,05,16,08,20.30
2011,07,05,16,09,20.30
2011,07,05,16,10,20.30
2011,07,05,16,11,20.20
2011,07,05,16,12,20.20
2011,07,05,16,13,20.20
2011,07,05,16,14,20.30
2011,07,05,16,15,20.40
2011,07,05,16,16,20.30
2011,07,05,16,17,20.40
2011,07,05,16,18,20.50
2011,07,05,16,19,20.50
2011,07,05,16,20,20.60
2011,07,05,16,21,20.70
2011,07,05,16,22,20.80
2011,07,05,16,23,21.00
2011,07,05,16,24,21.10
2011,07,05,16,25,21.20
2011,07,05,16,26,21.20
2011,07,05,16,27,21.10
2011,07,05,16,28,21.00
2011,07,05,16,29,20.80
2011,07,05,16,30,20.60
2011,07,05,16,31,20.50
2011,07,05,16,32,20.50
2011,07,05,16,33,20.40
2011,07,05,16,34,20.30
2011,07,05,16,35,20.30
2011,07,05,16,36,20.30
2011,07,05,16,37,20.40
2011,07,05,16,38,20.40
2011,07,05,16,39,20.50
2011,07,05,16,40,20.60
2011,07,05,16,41,20.70
2011,07,05,16,42,20.70
2011,07,05,16,43,20.70
2011,07,05,16,44,20.70
2011,07,05,16,45,20.60
2011,07,05,16,46,20.40
2011,07,05,16,47,20.30
2011,07,05,16,48,20.20
2011,07,05,16,49,20.10
2011,07,05,16,50,20.00
2011,07,05,16,51,20.00
2011,07,05,16,52,19.90
2011,07,05,16,53,19.90
2011,07,05,16,54,19.70
2011,07,05,16,55,19.60
2011,07,05,16,56,19.60
2011,07,05,16,57,19.60
2011,07,05,16,58,19.80
2011,07,05,16,59,19.90
2011,07,05,17,00,20.00
2011,07,05,17,01,20.00
2011,07,05,17,02,19.90
2011,07,05,17,03,19.80
2011,07,05,17,04,19.70
2011,07,05,17,05,19.70
2011,07,05,17,06,19.80
2011,07,05,17,07,19.90
2011,07,05,17,08,20.00
2011,07,05,17,09,20.20
2011,07,05,17,10,20.30
2011,07,05,17,11,20.50
2011,07,05,17,12,20.60
2011,07,05,17,13,20.70
2011,07,05,17,14,20.80
2011,07,05,17,15,20.90
2011,07,05,17,16,21.00
2011,07,05,17,17,21.10
2011,07,05,17,18,21.10
2011,07,05,17,19,21.20